AOR-E (EGNOS/PRN 120) 1 24307U 96053A 10250.12830730 -.00000140 00000-0 10000-3 0 3850 2 24307 0.0979 300.4798 0005658 208.3454 227.9936 1.00271479 51278 IOR-W (EGNOS/PRN 126) 1 25153U 98006B 10248.97458034 .00000125 00000-0 10000-3 0 2450 2 25153 0.4876 340.1560 0004213 191.2502 189.1877 1.00275415 46143 ARTEMIS (EGNOS/PRN 124) 1 26863U 01029A 10247.84123652 .00000114 00000-0 10000-3 0 9521 2 26863 8.5010 63.0248 0003824 122.0466 123.0018 1.00270302 34605 MTSAT-1R (MSAS/PRN 129) 1 28622U 05006A 10250.19546056 -.00000298 00000-0 10000-3 0 4130 2 28622 0.0328 289.7364 0002550 16.1625 250.6999 1.00271991 20234 IOR (GAGAN/PRN 127) 1 28628U 05009A 10245.15510478 -.00000261 00000-0 10000-3 0 4947 2 28628 2.3924 332.3142 0002979 186.9812 21.2293 1.00270390 19852 ANIK F1R (WAAS/PRN 138) 1 28868U 05036A 10243.54720226 -.00000075 00000-0 10000-3 0 8158 2 28868 0.0188 59.5128 0002784 104.0707 265.7189 1.00271823 18316 GALAXY 15 (WAAS/PRN 135) 1 28884U 05041A 10251.21633248 -.00000024 00000-0 10000-3 0 9304 2 28884 0.4180 78.9123 0002202 71.7090 155.4489 1.00316837 17974 MTSAT-2 (MSAS/PRN 137) 1 28937U 06004A 10244.39260433 -.00000244 00000-0 10000-3 0 8152 2 28937 0.0493 85.4586 0002956 52.3206 129.0575 1.00273802 16653 INMARSAT 4-F3 (WAAS/PRN 1 33278U 08039A 10250.18651853 -.00000158 00000-0 10000-3 0 8176 2 33278 3.0143 336.6971 0002999 199.5730 139.3795 1.00271049 7552